Location: Oshawa
(43.9000°N, 78.8670°W)
Time: 18:22:24
(UTC-04:00)

Cosmos 1821 Rocket - Pass Details

Date: 29 April 2018
Orbit: 944 x 1006 km, 82.9° (Epoch: 22 May)

Event Time Altitude Azimuth Distance (km) Brightness Sun altitude
Exits shadow 20:57:48 - 156° (SSE) 3,571 6.5 -7.6°
Reaches altitude 10° 21:00:12 10° 147° (SSE) 2,750 5.8 -8.0°
Maximum altitude 21:05:41 32° 87° (E) 1,613 4.8 -8.8°
Drops below altitude 10° 21:11:07 10° 26° (NNE) 2,730 6.4 -9.7°
Sets 21:13:52 0° 17° (NNE) 3,672 7.2 -10.1°
